Weather in Nizhnyaya Kumashka

Russia / Chuvash Republic     55°34′32″N   46°19′57″E
temp.,
°C
wind,
m/s
gust,
m/s
humid.,
%
clouds,
%
prec.,
mm/h
press.,
hPa
HPBL,
m
20 june, sun
sun2000:00+16w38955 0.0 1022144
03:00+15w23925 0.0 102360
06:00+19wnw24795 0.0 1023171
09:00+24wnw34645 0.0 1023574
12:00+28wnw34555 0.0 10231348
15:00+28wnw33540 0.0 10221613
18:00+26w24695 0.0 1021259
21:00+21wsw22890 0.0 102215
21 june, mon
mon2100:00+19sw11920 0.0 102211
03:00+17ssw11930 0.0 102311
06:00+21sw23815 0.0 1023146
09:00+26wsw23610 0.0 1023607
12:00+28w33510 0.0 10221326
15:00+29w33515 0.0 10221431
18:00+27w24685 0.0 1021220
21:00+21wsw118415 0.0 102211
22 june, tue
tue2200:00+20wsw11885 0.0 102211
03:00+19wsw119310 0.0 102311
06:00+22wsw128098 0.0 1023134
09:00+26w2265100 0.0 1023520
12:00+29w22525 0.0 10221513
15:00+30w224994 0.0 10221864
18:00+28wsw23660 0.0 1021126
21:00+22wsw11830 0.0 102111
23 june, wed
wed2300:00+20wsw11900 0.0 102211
03:00+19sw11890 0.0 102211
06:00+22wsw12780 0.0 1022132
09:00+27w23600 0.0 1021627
12:00+30wnw33471 0.0 10211783
15:00+30w44470 0.0 10202020
18:00+28w356639 0.1 1020366
21:00+21wsw3785100 0.9 1020117
24 june, thu
thu2400:00+21wnw258788 0.1 102091
03:00+20wnw258843 0.1 102092
06:00+21wnw0192100 1.6 102093
09:00+27nw24676 1.6 1019443
12:00+28nnw456871 1.3 1019752
15:00+29w137097 6.3 1019598
18:00+27w118117 1.6 101817
21:00+21sw259598 2.6 101899